Location: Cortada Guamacho
(10.5667°N, 67.0833°W)
Time: 04:06:00
(UTC+00:00)

SWIFT - Pass Details

Date: 06 July 2022
Orbit: 539 x 553 km, 20.6° (Epoch: 13 August)

Event Time Altitude Azimuth Distance (km) Brightness Sun altitude
Rises 01:05:23 0° 273° (W) 2,705 6.7 -29.2°
Reaches altitude 10° 01:07:50 10° 283° (WNW) 1,810 5.7 -29.7°
Enters shadow 01:10:32 28° 316° (NW) 1,034 4.2 -30.3°
